Tracking 21082 objects as of 5-Aug-2020
HD Live streaming from Space Station
objects crossing your sky now

SL-24 R/B

Track SL-24 R/B now!
10-day predictions


NORAD ID: 40541
Int'l Code: 2015-014C
Perigee: 530.5 km
Apogee: 1,445.1 km
Inclination: 97.4 °
Period: 104.7 minutes
Semi major axis: 7358 km
RCS: Unknown
Launch date: March 25, 2015
Source: Commonwealth of Independent States (former USSR) (CIS)
Launch site: Orenburg, Russia (OREN)

Note: This is a ROCKET BODY
aabbcc
Your satellite tracking list
Your tracking list is empty




NASA's NSSDC Master Catalog

Two Line Element Set (TLE):
1 40541U 15014C   20217.60513935  .00000025  00000-0  14089-4 0  9992
2 40541  97.3766 111.4354 0621427 119.4029 247.0636 13.75280771269096
Source of the keplerian elements: AFSPC